Date String (YYYY-MM-DD hh:mm:ss) UTC,Instrument flags,Ambient pressure (hPa),Sample flow (lpm),Bypass flow (lpm),Sample temperature (°C),Ambient temperature (°C),ASC tube jacket temperature (°C),LED temperature (°C),Box temperature (°C),Sample RH (%),Span deviation,Mass concentration (μg/m³),Mass concentration (μg/m³),Mass concentration (μg/m³)
DateTimeUTC,F1_M11,P_M11,Q1_M11,Q2_M11,T1_M11,T2_M11,T3_M11,T4_M11,T5_M11,U1_M11,ZSPAN_M11,X2_M11,X0_M11,X1_M11
2023-03-01 11:00:00,,0815.4,5.01,0.00,21.7,19.8,00.0,30.6,23.1,04.3,0000.0,0001.06,0001.62,0000.84
2023-03-01 11:01:00,,0815.4,5.02,0.00,21.6,19.6,00.0,30.6,23.1,04.3,0000.0,0001.05,0001.58,0000.84
2023-03-01 11:02:00,,0815.4,5.00,0.00,21.6,20.1,00.0,30.5,23.2,04.3,0000.0,0001.04,0001.57,0000.82
2023-03-01 11:03:00,,0815.4,5.00,0.00,21.7,21.4,00.0,30.5,23.5,04.3,0000.0,0001.01,0001.43,0000.83
2023-03-01 11:04:00,,0815.5,5.00,0.00,21.8,22.3,00.0,30.5,23.7,04.2,0000.0,0001.00,0001.42,0000.82
2023-03-01 11:05:00,,0815.4,5.00,0.00,21.9,22.1,00.0,30.6,23.8,04.2,0000.0,0001.03,0001.53,0000.81
2023-03-01 11:06:00,,0815.4,4.97,0.00,21.9,21.5,00.0,30.6,23.6,04.1,0000.0,0000.99,0001.48,0000.77
2023-03-01 11:07:00,,0815.5,5.00,0.00,21.8,21.0,00.0,30.6,23.4,04.2,0000.0,0000.98,0001.49,0000.75
2023-03-01 11:08:00,,0815.4,5.00,0.00,21.8,20.6,00.0,30.6,23.3,04.2,0000.0,0000.97,0001.52,0000.71
2023-03-01 11:09:00,,0815.4,4.99,0.00,21.7,20.2,00.0,30.6,23.2,04.1,0000.0,0000.88,0001.40,0000.66
2023-03-01 11:10:00,,0815.4,5.01,0.00,21.7,20.0,00.0,30.6,23.1,04.1,0000.0,0000.86,0001.39,0000.63
2023-03-01 11:11:00,,0815.4,5.00,0.00,21.6,19.8,00.0,30.5,23.0,04.2,0000.0,0000.83,0001.31,0000.61
2023-03-01 11:12:00,,0815.4,4.99,0.00,21.6,19.6,00.0,30.5,23.0,04.2,0000.0,0000.82,0001.33,0000.60
2023-03-01 11:13:00,,0815.4,5.00,0.00,21.5,19.8,00.0,30.5,23.0,04.1,0000.0,0000.81,0001.28,0000.60
2023-03-01 11:14:00,,0815.4,4.97,0.00,21.6,21.2,00.0,30.5,23.4,04.1,0000.0,0000.79,0001.26,0000.59
2023-03-01 11:15:00,,0815.4,5.01,0.00,21.8,22.4,00.0,30.5,23.7,04.1,0000.0,0000.77,0001.19,0000.58
2023-03-01 11:16:00,,0815.4,5.00,0.00,21.9,22.4,00.0,30.5,23.8,04.0,0000.0,0000.74,0001.09,0000.58
2023-03-01 11:17:00,,0815.4,5.01,0.00,21.9,21.7,00.0,30.6,23.7,04.0,0000.0,0000.78,0001.36,0000.59
2023-03-01 11:18:00,,0815.5,5.02,0.00,21.8,21.1,00.0,30.6,23.5,04.1,0000.0,0000.77,0001.35,0000.59
2023-03-01 11:19:00,,0815.4,5.01,0.00,21.8,20.6,00.0,30.6,23.3,04.0,0000.0,0000.75,0001.28,0000.59
2023-03-01 11:20:00,,0815.7,5.01,0.00,21.7,20.2,00.0,30.5,23.2,04.0,0000.0,0000.74,0001.24,0000.59
2023-03-01 11:21:00,,0815.6,5.00,0.00,21.7,20.0,00.0,30.5,23.2,04.1,0000.0,0000.73,0001.21,0000.58
2023-03-01 11:22:00,,0815.6,5.01,0.00,21.6,19.8,00.0,30.5,23.1,04.1,0000.0,0000.71,0001.16,0000.58
2023-03-01 11:23:00,,0815.8,4.98,0.00,21.6,19.6,00.0,30.5,23.1,04.1,0000.0,0000.71,0001.15,0000.57
2023-03-01 11:24:00,,0815.5,5.01,0.00,21.5,19.7,00.0,30.5,23.0,04.1,0000.0,0000.71,0001.15,0000.57
2023-03-01 11:25:00,,0815.7,5.00,0.00,21.6,20.9,00.0,30.4,23.3,04.1,0000.0,0000.72,0001.14,0000.57
2023-03-01 11:26:00,,0815.5,4.99,0.00,21.7,22.3,00.0,30.5,23.7,03.9,0000.0,0000.72,0001.16,0000.57
2023-03-01 11:27:00,,0815.5,5.01,0.00,21.9,22.7,00.0,30.5,23.9,03.7,0000.0,0000.71,0001.14,0000.57
2023-03-01 11:28:00,,0815.5,4.99,0.00,21.9,22.2,00.0,30.6,23.8,03.6,0000.0,0000.65,0000.87,0000.56
2023-03-01 11:29:00,,0815.4,4.99,0.00,21.9,21.7,00.0,30.6,23.8,03.6,0000.0,0000.65,0000.92,0000.55
2023-03-01 11:30:00,,0815.5,4.97,0.00,21.9,21.3,00.0,30.6,23.7,03.6,0000.0,0000.65,0001.00,0000.54
2023-03-01 11:31:00,,0815.4,5.01,0.00,21.9,21.0,00.0,30.6,23.6,03.8,0000.0,0000.67,0001.06,0000.53
2023-03-01 11:32:00,,0815.4,5.00,0.00,21.9,20.7,00.0,30.6,23.6,04.1,0000.0,0000.68,0001.07,0000.54
2023-03-01 11:33:00,,0815.4,5.00,0.00,21.9,20.5,00.0,30.6,23.6,04.1,0000.0,0000.70,0001.14,0000.54
2023-03-01 11:34:00,,0815.5,4.99,0.00,21.9,20.4,00.0,30.6,23.5,04.0,0000.0,0000.71,0001.87,0000.55
2023-03-01 11:35:00,,0815.4,5.03,0.00,21.9,20.3,00.0,30.6,23.5,04.0,0000.0,0000.70,0001.87,0000.55
2023-03-01 11:36:00,,0815.4,5.03,0.00,21.8,20.2,00.0,30.6,23.4,04.0,0000.0,0000.69,0001.84,0000.55
2023-03-01 11:37:00,,0815.4,5.01,0.00,21.8,20.1,00.0,30.6,23.4,04.1,0000.0,0000.72,0001.93,0000.56
2023-03-01 11:38:00,,0815.5,4.99,0.00,21.8,20.8,00.0,30.6,23.6,04.1,0000.0,0000.72,0001.94,0000.56
2023-03-01 11:39:00,,0815.5,5.01,0.00,21.9,22.0,00.0,30.6,23.9,04.1,0000.0,0000.76,0002.02,0000.56
2023-03-01 11:40:00,,0815.4,5.04,0.00,22.1,22.9,00.0,30.6,24.1,03.9,0000.0,0000.77,0001.96,0000.57
2023-03-01 11:41:00,,0815.4,5.01,0.00,22.2,22.6,00.0,30.7,24.1,03.9,0000.0,0000.76,0001.88,0000.57
2023-03-01 11:42:00,,0815.4,5.01,0.00,22.2,22.1,00.0,30.7,24.0,03.9,0000.0,0000.75,0001.84,0000.57
2023-03-01 11:43:00,,0815.4,5.02,0.00,22.1,21.6,00.0,30.7,23.9,04.0,0000.0,0000.80,0001.96,0000.56
2023-03-01 11:44:00,,0815.4,5.00,0.00,22.1,21.2,00.0,30.7,23.8,04.1,0000.0,0000.81,0001.92,0000.56
2023-03-01 11:45:00,,0815.6,5.00,0.00,22.1,21.0,00.0,30.8,23.8,04.0,0000.0,0000.79,0001.20,0000.56
2023-03-01 11:46:00,,0815.8,5.00,0.00,22.1,20.8,00.0,30.8,23.7,04.1,0000.0,0000.83,0001.31,0000.57
2023-03-01 11:47:00,,0816.1,5.00,0.00,22.1,20.6,00.0,30.8,23.7,04.1,0000.0,0000.82,0001.32,0000.56
2023-03-01 11:48:00,,0816.2,5.02,0.00,22.0,20.5,00.0,30.8,23.7,04.1,0000.0,0000.78,0001.22,0000.56
2023-03-01 11:49:00,,0816.1,5.00,0.00,22.0,20.3,00.0,30.8,23.6,04.5,0000.0,0000.78,0001.20,0000.56
2023-03-01 11:50:00,,0815.9,4.99,0.00,22.0,20.2,00.0,30.7,23.6,04.8,0000.0,0000.78,0001.20,0000.56
2023-03-01 11:51:00,,0816.1,5.00,0.00,22.0,20.5,00.0,30.7,23.7,05.0,0000.0,0000.80,0001.24,0000.57
2023-03-01 11:52:00,,0816.0,5.00,0.00,22.1,21.8,00.0,30.7,24.0,05.1,0000.0,0000.83,0001.32,0000.57
2023-03-01 11:53:00,,0816.0,5.03,0.00,22.2,22.9,00.0,30.7,24.2,04.9,0000.0,0000.85,0001.37,0000.58
2023-03-01 11:54:00,,0816.0,5.00,0.00,22.3,22.9,00.0,30.8,24.3,04.6,0000.0,0000.81,0001.30,0000.59
2023-03-01 11:55:00,,0816.0,4.99,0.00,22.3,22.3,00.0,30.9,24.2,04.8,0000.0,0000.81,0001.29,0000.59
2023-03-01 11:56:00,,0816.1,4.98,0.00,22.3,21.9,00.0,30.9,24.1,04.9,0000.0,0000.88,0001.41,0000.61
2023-03-01 11:57:00,,0816.1,5.00,0.00,22.3,21.6,00.0,30.9,24.0,04.7,0000.0,0000.94,0001.51,0000.62
2023-03-01 11:58:00,,0816.0,5.00,0.00,22.3,21.3,00.0,30.9,24.0,04.7,0000.0,0000.97,0001.77,0000.64
2023-03-01 11:59:00,,0816.1,5.00,0.00,22.3,21.1,00.0,30.9,23.9,04.9,0000.0,0000.99,0001.81,0000.65
